Погода в Охе

Погода в Охе : погода сейчас, прогноз погоды и архив. Всё, что Вы хотите узнать о погоде в Охе!

Хотите узнать прогноз погоды в Охе? Тогда Вам сюда: Погода в Охе

Поиск расширенной информации на нашем сайте:

Другие новости

Новости СМИ2

Главная страница сайта

Новости сайта

02.10.2013

Напоминаем, что на нашем новом сайте вы можете получить высокодетализированные прогнозы погоды по пунктам России, СНГ и мира (включающие важные для авиации метеовеличины, такие как направление и скорость ветра, видимость, явления погоды, количество и форма облачности, нижняя и верхняя граница облачности), а также ознакомиться с разнообразными материалами по авиационной метеорологии и подборкой полезных ссылок на эту тему.

Сайт Метеоцентр.Азия посвящён разработке технологий оптимизации авиаметеорологического обслуживания, включая проектирование и перспективное создание нескольких автоматизированных авиаметеорологических систем:
- система выпуска высокодетальных прогностических карт явлений погоды для нижнего воздушного пространства по России и ближнему зарубежью;
- система верификации прогнозов TAF (выпускаемых синоптиками официальных АМСГ РФ и ближнего зарубежья) и AUTOTAF (выпускаемых сайтом Метеоцентр.Азия) - выявление ошибок, онлайн-сопоставление с фактической погодой METAR, автоматическое внесение коррективов в прогнозы при резком отклонении фактической погоды от прогноза, подсчёт оправдываемости прогнозов по элементам и в целом;
- система обработки, анализа и отображения авиаметеорологической информации для применения провайдерами метеорологической информации.


Погода в Охе - сегодня

Время (UTC), дата Ветер
(°,м/с) 
Видим.   Явления Облачность Т
(°С)
Тd
(°С)
f(%) Тe
(°С)
Pmin
(гПа)
dP
(гПа)
Po
(мм)
O2
(г/м3)
Тmin Tmax R s Состояние
почвы
00 25.04.17 030 (СВ) 2-3{03}  20000 м  {туман}  8/0 верхняя 
[Ci sp]
+1.3 -1.6 81 +1  1023.5  -0.6  764  307           
06 25.04.17 140 (ЮВ) 4-5{05}  20000 м    6/1 200 м верхняя 
[St|Ci fib]
+3.2 -3.7 61 +1  1020.8  -1.5  762  304           
09 25.04.17 110 (В) 3-5{05}  20000 м    8/3 200 м верхняя 
[St|Ci sp]
-1.9 -4.8 81 -4  1019.8  -1  761  309    +5       
12 25.04.17 130 (ЮВ) 3-5{06}  20000 м    10/10 120 м 
[St]
-5 -5.1 99 -7  1018.9  -0.9  761  313           
18 25.04.17 130 (ЮВ) 4-6{06}  20000 м    10/10 120 м 
[St]
-5 -5.1 99 -8  1015.5  -1.8  758  312           
21 25.04.17 120 (ЮВ) 4-7{07}  4000 м  дымка  10/10 100 м 
[St]
-3.7 -3.7 100 -7  1013.7  -1.8  757  309  -5.6      64  неравномерный
мокрый или
старый снег
100% 
00 26.04.17 100 (В) 4-6{07}  4000 м  дымка  10/10 150 м 
[St]
-1 -1.3 98 -4  1012.1  -1.6  755  306           
06 26.04.17 130 (ЮВ) 4-6{07}  20000 м    9/9 270 м 
[St]
+0.3 -2.5 81 -2  1009.8  -1.1  754  304           
09 26.04.17 100 (В) 3-5{06}  20000 м    10/10 270 м 
[St]
-1.3 -2.8 90 -3  1008.9  -0.9  753  305    +0.9       
12 26.04.17 110 (В) 3-5{05}  20000 м    10/10 180 м 
[St]
-2.2 -2.6 97 -4  1008.6  -0.3  753  306           
18 26.04.17 120 (ЮВ) 3-4{05}  20000 м    10/10 150 м 
[St]
-3.7 -3.8 99 -6  1006  -1.4  751  307           
21 26.04.17 110 (В) 2-3{04}  20000 м  {снег}  10/10 120 м 
[St]
-4.2 -4.2 100 -5  1005.2  -0.8  750  308  -4.5    0.0  63  неравномерный
мокрый или
старый снег
100% 
00 27.04.17 130 (ЮВ) 1-2{04}  20000 м  {снег}  10/10 210 м 
[St]
-2.1 -3.9 87 -2  1004.1  -1  749  305           
06 27.04.17 050 (СВ) 3-5{05}  20000 м    9/9 240 м 
[St]
-2.1 -4.3 85 -4  1002.4  -0.7  748  304           
09 27.04.17 030 (СВ) 4-6{07}  20000 м  {снег}  10/10 210 м 
[St]
-2.3 -3.7 90 -5  1001.6  -0.8  748  304    -0.5  0.0     
12 27.04.17 020 (С) 2-4{06}  20000 м  {снег}  8/8 360 м 
[Sc]
-2 -3.4 90 -3  1001.3  -0.3  747  304           
18 27.04.17 340 (С) 2-4{06}  20000 м    8/8 360 м 
[Sc]
-2.9 -4.4 89 -4  999.2  -1.2  746  304           
21 27.04.17 320 (СЗ) 4-5{06}  20000 м    9/9 300 м 
[Sc]
-3.5 -4.8 91 -6  999.1  -0.2  746  305  -3.9      61  неравномерный
мокрый или
старый снег
100% 
00 28.04.17 310 (СЗ) 3-4{06}  20000 м    9/9 330 м 
[Sc]
-2.1 -4.7 82 -4  999.3  0.2  746  303           
06 28.04.17 320 (СЗ) 4-6{07}  20000 м    3/3 300 м 
[Sc]
-0.2 -3.8 77 -3  998.9  -0.2  746  301           
09 28.04.17 330 (СЗ) 3-5{07}  20000 м    10/10 210 м 
[St]
-2 -3.5 89 -4  999.7  0.8  746  303    -0.1       
12 28.04.17 220 (ЮЗ) 1-2{05}  20000 м    10/10 180 м 
[St]
-2.4 -3.6 91 -2  1000.5  0.8  747  304           
18 28.04.17 290 (З) 1-2{04}  4000 м  дымка  10/10 100 м 
[St]
-3.4 -3.4 100 -3  1001  0.3  747  305           
21 28.04.17 190 (Ю) 2-3{03}  20000 м    10/10 120 м 
[St]
-3.3 -3.4 99 -4  1001.5  0.5  748  305  -3.7      59  неравномерный
мокрый или
старый снег
100% 
00 29.04.17 150 (ЮВ) 2-4{05}  20000 м    5/5 300 м 
[Sc]
-0.1 -3.4 78 -1  1001.7  0.2  748  302           
Время (UTC), дата Ветер
(°,м/с) 
Видим.   Явления Облачность Т
(°С)
Тd
(°С)
f(%) Тe
(°С)
Pmin
(гПа)
dP
(гПа)
Po
(мм)
O2
(г/м3)
Тmin Tmax R s Состояние
почвы

Для получения пояснительной информации подведите курсор к названию столбца.

ПОГОДА в Охе - архив

Всё, что Вы хотите узнать о погоде в Охе - удобно и подробно!

Выберите нужную дату (начиная с 1 января 2015* года) и нажмите кнопку "Найти".
Будут отображены архивные сводки погоды по пункту Оха, начиная с указанной даты.


Отображать данные в формате CSV (для использования в таблицах Excel)


Внимание! Наш архив погоды предназначен исключительно для личного некоммерческого использования в познавательных целях. Если Вам необходимы официальные справки о состоянии погоды (для производственных, юридических, коммерческих и т.п. целей), обращайтесь в органы Росгидромета.

*Примечание: данная дата относится к архиву по метеостанциям СССР (Россия, СНГ, Балтия).
Архив по метеостанциям Зарубежной Европы и Азии (кроме Китая) хранится 10 дней, по другим регионам земного шара (Китай, Африка, Америка, Австралия, Океания) - 1 день.

Оха - район местоположения метеостанции


Название, широта, долгота, высота метеостанции:
Оха 53.6°ш. 142.9°д. 8 м над ур. моря [Российская Федерация]

Дополнительная информация

В oтличие oт бoльшинства пoгoдных сайтoв мы публикуем пoдрoбную метеoинфoрмацию в детальнoм прoфессиoнальнoм фoрмате.

Характеристики температуры и влажнoсти вoздуха измеряются на высoте 2 м в тени вдали oт зданий и деревьев.
Скoрoсть ветра измеряется на высoте 10 м (на урoвне рoста челoвека скoрoсть ветра ниже в 1.5-2 раза). Если метеoстанция нахoдится в гoрoде или в лесу, тo скoрoсть ветра занижена на 2-4 м/с пo сравнению с oткрытым местoм. Скoрoсть ветра над акватoриями крупных рек и oзёр, а также на вершинах хoлмoв на 2-5 м/с выше, чем в oбычных услoвиях.
Атмoсфернoе давление в разных тoчках местнoсти мoжет значительнo oтличаться oт давления на метеoстанции, в зависимoсти oт услoвий рельефа (при пoдъёме на 10 м давление пoнижается примернo на 1 мм рт.ст.).